DAL1748 KDTW-KIAH

Flight info

Callsign DAL1748
Flight time N/A
Altitude 36000
Route BARII3 SINKR BIGXX PXV ARG FSM OKRAY URH CVE GUSHR3
Aircraft A320/M-SDE3FGHIRWY/LB1

Departure

Time 2026-05-07 23:52
Airport Detroit Metropolitan Wayne County Airport (KDTW)

Arrival

Time N/A
Airport George Bush Intercontinental Airport (KIAH)
Time Latitude Longitude Altitude Speed Heading
2026-05-07 22:58 42.20997 -83.35617 649 ft 0 kts 291°
2026-05-07 23:40 42.20997 -83.35615 649 ft 2 kts 291°
2026-05-07 23:40 42.20987 -83.35584 651 ft 4 kts 295°
2026-05-07 23:40 42.20974 -83.35552 651 ft 4 kts 304°
2026-05-07 23:40 42.20957 -83.35525 651 ft 4 kts 337°
2026-05-07 23:41 42.20942 -83.35523 652 ft 1 kts 28°
2026-05-07 23:41 42.20939 -83.35525 651 ft 0 kts 28°
2026-05-07 23:44 42.20941 -83.35524 651 ft 2 kts 28°
2026-05-07 23:45 42.21004 -83.35478 649 ft 15 kts 28°
2026-05-07 23:45 42.21088 -83.35417 649 ft 13 kts 28°
2026-05-07 23:45 42.21162 -83.35362 649 ft 11 kts 28°
2026-05-07 23:45 42.21250 -83.35298 649 ft 16 kts 27°
2026-05-07 23:46 42.21346 -83.35236 649 ft 14 kts 25°
2026-05-07 23:46 42.21431 -83.35184 650 ft 13 kts 23°
2026-05-07 23:46 42.21504 -83.35136 650 ft 11 kts 30°
2026-05-07 23:46 42.21560 -83.35079 650 ft 11 kts 42°
2026-05-07 23:47 42.21665 -83.34945 650 ft 26 kts 43°
2026-05-07 23:47 42.21792 -83.34781 650 ft 25 kts 44°
2026-05-07 23:47 42.21835 -83.34586 650 ft 21 kts 88°
2026-05-07 23:47 42.21918 -83.34459 649 ft 18 kts 30°
2026-05-07 23:48 42.22020 -83.34382 649 ft 16 kts 28°
2026-05-07 23:48 42.22111 -83.34314 649 ft 14 kts 28°
2026-05-07 23:48 42.22210 -83.34242 649 ft 22 kts 28°
2026-05-07 23:48 42.22354 -83.34137 649 ft 24 kts 28°
2026-05-07 23:49 42.22451 -83.34066 651 ft 23 kts 28°
2026-05-07 23:49 42.22588 -83.33960 649 ft 23 kts 30°
2026-05-07 23:49 42.22723 -83.33861 651 ft 20 kts 29°
2026-05-07 23:49 42.22830 -83.33783 650 ft 14 kts 30°
2026-05-07 23:50 42.22855 -83.33737 649 ft 0 kts 85°
2026-05-07 23:50 42.22855 -83.33736 649 ft 0 kts 85°
2026-05-07 23:51 42.22853 -83.33716 649 ft 9 kts 107°
2026-05-07 23:51 42.22796 -83.33657 649 ft 10 kts 175°
2026-05-07 23:51 42.22720 -83.33694 652 ft 17 kts 208°
2026-05-07 23:51 42.22447 -83.33902 652 ft 78 kts 208°
2026-05-07 23:52 42.21787 -83.34395 651 ft 136 kts 211°
2026-05-07 23:52 42.20910 -83.35110 1011 ft 149 kts 211°
2026-05-07 23:52 42.19995 -83.35835 1626 ft 154 kts 215°
2026-05-07 23:52 42.19053 -83.36529 2332 ft 153 kts 206°
2026-05-07 23:53 42.18009 -83.36913 2897 ft 162 kts 200°
2026-05-07 23:53 42.16834 -83.37325 3251 ft 186 kts 199°
2026-05-07 23:53 42.15512 -83.37802 3507 ft 208 kts 200°
2026-05-07 23:53 42.14029 -83.38345 3783 ft 233 kts 199°
2026-05-07 23:54 42.12389 -83.38951 4214 ft 254 kts 199°
2026-05-07 23:54 42.10654 -83.39590 4985 ft 261 kts 199°
2026-05-07 23:54 42.08892 -83.40241 5845 ft 264 kts 199°
2026-05-07 23:54 42.07107 -83.40902 6643 ft 268 kts 199°
2026-05-07 23:55 42.05306 -83.41529 7252 ft 271 kts 198°
2026-05-07 23:55 42.03470 -83.42130 8115 ft 272 kts 198°
2026-05-07 23:55 42.01621 -83.42726 8932 ft 275 kts 199°
2026-05-07 23:55 41.99751 -83.43331 9741 ft 277 kts 199°
2026-05-07 23:56 41.97831 -83.43959 10321 ft 288 kts 200°
2026-05-07 23:56 41.95850 -83.44679 10512 ft 309 kts 204°
2026-05-07 23:56 41.93798 -83.45791 10654 ft 329 kts 208°
2026-05-07 23:56 41.91636 -83.47027 10997 ft 343 kts 208°
2026-05-07 23:57 41.89422 -83.48286 11634 ft 347 kts 208°
2026-05-07 23:57 41.87186 -83.49549 12323 ft 350 kts 208°
2026-05-07 23:57 41.84930 -83.50824 13005 ft 353 kts 209°
2026-05-07 23:57 41.82660 -83.52111 13670 ft 356 kts 209°
2026-05-07 23:58 41.80364 -83.53415 14258 ft 360 kts 210°
2026-05-07 23:58 41.78046 -83.54729 14809 ft 364 kts 210°
2026-05-07 23:58 41.75704 -83.56056 15358 ft 367 kts 210°
2026-05-07 23:58 41.73337 -83.57398 15908 ft 371 kts 210°
2026-05-07 23:59 41.70944 -83.58755 16457 ft 375 kts 210°
2026-05-07 23:59 41.68553 -83.60179 16994 ft 377 kts 212°
2026-05-07 23:59 41.66181 -83.61712 17531 ft 380 kts 214°
2026-05-07 23:59 41.63806 -83.63310 18081 ft 384 kts 214°
2026-05-08 00:00 41.61418 -83.64938 18570 ft 387 kts 215°
2026-05-08 00:00 41.59003 -83.66575 19051 ft 390 kts 214°
2026-05-08 00:00 41.56571 -83.68205 19526 ft 393 kts 214°
2026-05-08 00:00 41.54111 -83.69839 20006 ft 396 kts 214°
2026-05-08 00:01 41.51633 -83.71470 20475 ft 398 kts 214°
2026-05-08 00:01 41.49136 -83.73102 20913 ft 401 kts 214°
2026-05-08 00:01 41.46620 -83.74744 21363 ft 403 kts 214°
2026-05-08 00:01 41.44094 -83.76394 21798 ft 405 kts 215°
2026-05-08 00:02 41.41557 -83.78057 22235 ft 407 kts 215°
2026-05-08 00:02 41.39004 -83.79730 22636 ft 410 kts 215°
2026-05-08 00:02 41.36437 -83.81410 23027 ft 412 kts 215°
2026-05-08 00:02 41.33856 -83.83096 23421 ft 414 kts 216°
2026-05-08 00:03 41.31262 -83.84791 23765 ft 416 kts 216°
2026-05-08 00:03 41.28625 -83.86516 24110 ft 418 kts 216°
2026-05-08 00:03 41.26011 -83.88221 24455 ft 418 kts 216°
2026-05-08 00:03 41.23394 -83.89925 24801 ft 419 kts 216°
2026-05-08 00:04 41.20815 -83.91598 25141 ft 419 kts 216°
2026-05-08 00:04 41.18194 -83.93300 25469 ft 420 kts 216°
2026-05-08 00:04 41.15569 -83.95003 25790 ft 420 kts 216°
2026-05-08 00:04 41.12940 -83.96708 26113 ft 420 kts 217°
2026-05-08 00:05 41.10311 -83.98410 26437 ft 420 kts 216°
2026-05-08 00:05 41.07680 -84.00110 26737 ft 421 kts 217°
2026-05-08 00:05 41.05056 -84.01810 27021 ft 421 kts 217°
2026-05-08 00:05 41.02422 -84.03516 27300 ft 421 kts 217°
2026-05-08 00:06 40.99791 -84.05221 27570 ft 421 kts 217°
2026-05-08 00:06 40.97162 -84.06924 27904 ft 420 kts 217°
2026-05-08 00:06 40.94548 -84.08609 28301 ft 416 kts 217°
2026-05-08 00:06 40.91950 -84.10274 28712 ft 413 kts 217°
2026-05-08 00:07 40.89369 -84.11925 29103 ft 410 kts 217°
2026-05-08 00:07 40.86794 -84.13550 29498 ft 409 kts 217°
2026-05-08 00:07 40.84225 -84.15120 29901 ft 407 kts 217°
2026-05-08 00:07 40.81651 -84.16664 30269 ft 405 kts 216°
2026-05-08 00:08 40.79092 -84.18188 30547 ft 403 kts 216°
2026-05-08 00:08 40.76536 -84.19709 30809 ft 403 kts 216°
2026-05-08 00:08 40.73978 -84.21236 31065 ft 403 kts 217°
2026-05-08 00:08 40.71464 -84.22744 31310 ft 402 kts 217°
2026-05-08 00:09 40.68916 -84.24274 31561 ft 402 kts 217°
2026-05-08 00:09 40.66368 -84.25804 31816 ft 402 kts 217°
2026-05-08 00:09 40.63823 -84.27328 32071 ft 402 kts 217°
2026-05-08 00:09 40.61280 -84.28853 32328 ft 401 kts 217°
2026-05-08 00:10 40.58741 -84.30379 32582 ft 401 kts 217°
2026-05-08 00:10 40.56202 -84.31904 32836 ft 401 kts 217°
2026-05-08 00:10 40.53665 -84.33425 33087 ft 401 kts 217°
2026-05-08 00:10 40.51128 -84.34942 33336 ft 401 kts 217°
2026-05-08 00:11 40.48591 -84.36455 33584 ft 400 kts 217°
2026-05-08 00:11 40.46071 -84.37992 33841 ft 396 kts 220°
2026-05-08 00:11 40.43777 -84.39867 34082 ft 383 kts 228°
2026-05-08 00:11 40.41678 -84.41998 34264 ft 381 kts 228°
2026-05-08 00:12 40.39579 -84.44131 34440 ft 382 kts 228°
2026-05-08 00:12 40.37469 -84.46267 34610 ft 383 kts 228°
2026-05-08 00:12 40.35357 -84.48398 34789 ft 383 kts 228°
2026-05-08 00:12 40.33244 -84.50529 34964 ft 384 kts 228°
2026-05-08 00:13 40.31126 -84.52665 35132 ft 384 kts 228°
2026-05-08 00:13 40.29009 -84.54801 35289 ft 384 kts 228°
2026-05-08 00:13 40.26889 -84.56941 35448 ft 385 kts 228°
2026-05-08 00:13 40.24770 -84.59079 35606 ft 385 kts 228°
2026-05-08 00:14 40.22646 -84.61216 35768 ft 385 kts 228°
2026-05-08 00:14 40.20519 -84.63348 35928 ft 385 kts 228°
2026-05-08 00:14 40.16248 -84.67640 36009 ft 390 kts 228°
2026-05-08 00:15 40.11941 -84.71963 36013 ft 391 kts 228°
2026-05-08 00:15 40.07609 -84.76285 36011 ft 391 kts 228°
2026-05-08 00:16 40.03285 -84.80592 36013 ft 391 kts 228°
2026-05-08 00:16 39.98969 -84.84897 36015 ft 390 kts 228°
2026-05-08 00:17 39.94658 -84.89192 36015 ft 390 kts 228°
2026-05-08 00:17 39.90369 -84.93458 36023 ft 390 kts 228°
2026-05-08 00:18 39.86054 -84.97741 36020 ft 390 kts 228°
2026-05-08 00:18 39.81740 -85.02014 36034 ft 389 kts 228°
2026-05-08 00:19 39.77435 -85.06268 36032 ft 389 kts 228°
2026-05-08 00:19 39.73130 -85.10515 36032 ft 388 kts 228°
2026-05-08 00:20 39.68836 -85.14752 36028 ft 387 kts 228°
2026-05-08 00:20 39.64549 -85.18968 36029 ft 386 kts 229°
2026-05-08 00:21 39.60269 -85.23180 36031 ft 385 kts 229°
2026-05-08 00:21 39.56003 -85.27365 36033 ft 384 kts 229°
2026-05-08 00:22 39.51745 -85.31539 36035 ft 383 kts 229°
2026-05-08 00:22 39.47491 -85.35702 36033 ft 383 kts 229°
2026-05-08 00:23 39.43243 -85.39851 36034 ft 382 kts 229°
2026-05-08 00:23 39.39004 -85.43983 36039 ft 381 kts 229°
2026-05-08 00:24 39.34771 -85.48103 36032 ft 380 kts 229°
2026-05-08 00:24 39.32819 -85.50319 36032 ft 367 kts 238°
2026-05-08 00:24 39.31222 -85.52839 36027 ft 360 kts 242°
2026-05-08 00:25 39.28166 -85.57970 36024 ft 360 kts 242°
2026-05-08 00:25 39.25106 -85.63073 36033 ft 360 kts 242°
2026-05-08 00:26 39.22040 -85.68169 36036 ft 359 kts 242°
2026-05-08 00:26 39.18981 -85.73258 36035 ft 359 kts 242°
2026-05-08 00:27 39.15917 -85.78345 36034 ft 359 kts 242°
2026-05-08 00:27 39.12852 -85.83414 36035 ft 359 kts 242°
2026-05-08 00:28 39.09788 -85.88481 36032 ft 358 kts 242°
2026-05-08 00:28 39.07243 -85.92685 36028 ft 358 kts 242°
2026-05-08 00:29 39.04185 -85.97746 36024 ft 358 kts 242°
2026-05-08 00:29 39.01119 -86.02794 36023 ft 358 kts 242°
2026-05-08 00:30 38.98053 -86.07829 36022 ft 358 kts 242°
2026-05-08 00:30 38.94985 -86.12863 36026 ft 358 kts 241°
2026-05-08 00:31 38.91916 -86.17896 36030 ft 358 kts 242°
2026-05-08 00:31 38.88844 -86.22921 36032 ft 358 kts 241°
2026-05-08 00:32 38.85773 -86.27940 36034 ft 358 kts 241°
2026-05-08 00:32 38.82693 -86.32952 36035 ft 358 kts 241°
2026-05-08 00:33 38.79618 -86.37963 36035 ft 357 kts 241°
2026-05-08 00:33 38.76546 -86.42973 36036 ft 358 kts 241°
2026-05-08 00:34 38.73463 -86.47984 36029 ft 358 kts 241°
2026-05-08 00:34 38.70383 -86.52982 36030 ft 358 kts 241°
2026-05-08 00:35 38.67299 -86.57977 36041 ft 358 kts 241°
2026-05-08 00:35 38.64209 -86.62966 36038 ft 358 kts 241°
2026-05-08 00:36 38.61120 -86.67949 36039 ft 358 kts 241°
2026-05-08 00:36 38.58026 -86.72931 36041 ft 358 kts 241°
2026-05-08 00:37 38.54932 -86.77906 36047 ft 357 kts 241°
2026-05-08 00:38 38.50288 -86.85352 36047 ft 357 kts 241°
2026-05-08 00:38 38.47199 -86.90313 36049 ft 357 kts 241°
2026-05-08 00:39 38.44108 -86.95270 36048 ft 357 kts 241°
2026-05-08 00:39 38.41016 -87.00221 36049 ft 357 kts 241°
2026-05-08 00:40 38.37919 -87.05162 36049 ft 357 kts 240°
2026-05-08 00:40 38.34808 -87.10093 36048 ft 357 kts 241°
2026-05-08 00:41 38.31707 -87.15019 36047 ft 356 kts 241°
2026-05-08 00:41 38.28609 -87.19939 36049 ft 356 kts 241°
2026-05-08 00:42 38.25506 -87.24856 36055 ft 356 kts 241°
2026-05-08 00:42 38.22394 -87.29801 36063 ft 361 kts 241°
2026-05-08 00:43 38.19231 -87.34813 36061 ft 365 kts 240°
2026-05-08 00:43 38.16032 -87.39856 36064 ft 367 kts 240°
2026-05-08 00:44 38.12819 -87.44895 36063 ft 367 kts 240°
2026-05-08 00:44 38.09611 -87.49927 36055 ft 366 kts 240°
2026-05-08 00:45 38.06407 -87.54953 36054 ft 366 kts 240°
2026-05-08 00:45 38.03212 -87.59982 36055 ft 366 kts 240°
2026-05-08 00:46 38.00385 -87.64415 36059 ft 365 kts 240°
2026-05-08 00:46 37.97183 -87.69417 36059 ft 365 kts 240°
2026-05-08 00:47 37.93988 -87.74404 36065 ft 364 kts 240°
2026-05-08 00:47 37.90907 -87.79459 36070 ft 360 kts 244°
2026-05-08 00:48 37.88108 -87.84685 36069 ft 358 kts 245°
2026-05-08 00:48 37.85349 -87.89921 36064 ft 358 kts 244°
2026-05-08 00:49 37.82545 -87.95120 36063 ft 358 kts 244°
2026-05-08 00:49 37.79717 -88.00290 36068 ft 358 kts 244°
2026-05-08 00:50 37.76876 -88.05446 36068 ft 357 kts 244°
2026-05-08 00:50 37.74051 -88.10598 36068 ft 356 kts 244°
2026-05-08 00:51 37.71231 -88.15744 36068 ft 356 kts 244°
2026-05-08 00:51 37.68404 -88.20876 36064 ft 355 kts 244°
2026-05-08 00:52 37.65587 -88.25993 36063 ft 355 kts 244°
2026-05-08 00:52 37.62777 -88.31096 36061 ft 354 kts 244°
2026-05-08 00:53 37.59969 -88.36184 36058 ft 353 kts 244°
2026-05-08 00:53 37.57158 -88.41266 36059 ft 353 kts 244°
2026-05-08 00:54 37.54347 -88.46343 36055 ft 353 kts 244°
2026-05-08 00:54 37.51549 -88.51375 36053 ft 353 kts 244°
2026-05-08 00:55 37.48911 -88.56105 36050 ft 353 kts 244°
2026-05-08 00:55 37.46095 -88.61158 36053 ft 352 kts 244°
2026-05-08 00:56 37.43282 -88.66212 36051 ft 352 kts 244°
2026-05-08 00:56 37.40471 -88.71254 36053 ft 352 kts 244°
2026-05-08 00:57 37.37654 -88.76288 36051 ft 351 kts 244°
2026-05-08 00:57 37.34846 -88.81313 36052 ft 351 kts 244°
2026-05-08 00:58 37.32051 -88.86293 36050 ft 351 kts 244°
2026-05-08 00:58 37.29238 -88.91303 36057 ft 351 kts 244°
2026-05-08 00:59 37.26423 -88.96304 36052 ft 351 kts 244°
2026-05-08 00:59 37.23600 -89.01302 36056 ft 351 kts 244°
2026-05-08 01:00 37.20785 -89.06298 36062 ft 350 kts 243°
2026-05-08 01:00 37.17969 -89.11293 36064 ft 350 kts 243°
2026-05-08 01:01 37.15148 -89.16281 36064 ft 350 kts 243°
2026-05-08 01:01 37.12324 -89.21263 36062 ft 350 kts 243°
2026-05-08 01:02 37.09513 -89.26210 36065 ft 350 kts 243°
2026-05-08 01:02 37.06681 -89.31181 36069 ft 350 kts 243°
2026-05-08 01:03 37.03851 -89.36145 36066 ft 350 kts 243°
2026-05-08 01:03 37.01021 -89.41114 36060 ft 350 kts 243°
2026-05-08 01:04 36.98195 -89.46071 36044 ft 350 kts 243°
2026-05-08 01:04 36.95381 -89.50994 36042 ft 350 kts 243°
2026-05-08 01:05 36.92546 -89.55943 36050 ft 350 kts 243°
2026-05-08 01:05 36.89713 -89.60883 36050 ft 349 kts 243°
2026-05-08 01:06 36.86878 -89.65818 36048 ft 350 kts 243°
2026-05-08 01:06 36.84042 -89.70753 36050 ft 349 kts 243°
2026-05-08 01:07 36.81214 -89.75684 36052 ft 349 kts 243°
2026-05-08 01:07 36.78382 -89.80608 36054 ft 349 kts 243°
2026-05-08 01:08 36.75535 -89.85528 36063 ft 349 kts 243°
2026-05-08 01:08 36.72706 -89.90414 36067 ft 349 kts 243°
2026-05-08 01:09 36.69862 -89.95324 36069 ft 349 kts 242°
2026-05-08 01:09 36.67499 -89.99403 36078 ft 349 kts 242°
2026-05-08 01:10 36.64651 -90.04302 36084 ft 349 kts 242°
2026-05-08 01:10 36.61801 -90.09196 36080 ft 349 kts 242°
2026-05-08 01:11 36.58952 -90.14095 36077 ft 349 kts 242°
2026-05-08 01:11 36.56102 -90.18979 36071 ft 349 kts 242°
2026-05-08 01:12 36.53245 -90.23856 36064 ft 349 kts 242°
2026-05-08 01:12 36.50387 -90.28728 36058 ft 349 kts 242°
2026-05-08 01:13 36.47530 -90.33604 36047 ft 349 kts 242°
2026-05-08 01:13 36.44692 -90.38438 36047 ft 349 kts 242°
2026-05-08 01:14 36.41827 -90.43308 36050 ft 349 kts 242°
2026-05-08 01:14 36.38967 -90.48166 36052 ft 349 kts 242°
2026-05-08 01:15 36.36112 -90.53030 36052 ft 349 kts 242°
2026-05-08 01:15 36.33246 -90.57892 36056 ft 349 kts 242°
2026-05-08 01:16 36.30371 -90.62735 36053 ft 349 kts 242°
2026-05-08 01:16 36.27497 -90.67577 36053 ft 348 kts 242°
2026-05-08 01:17 36.24629 -90.72417 36055 ft 348 kts 242°
2026-05-08 01:17 36.21780 -90.77225 36054 ft 348 kts 242°
2026-05-08 01:18 36.18915 -90.82057 36055 ft 348 kts 242°
2026-05-08 01:18 36.16041 -90.86884 36058 ft 348 kts 242°
2026-05-08 01:19 36.13162 -90.91706 36057 ft 348 kts 242°
2026-05-08 01:19 36.10731 -90.96810 36055 ft 337 kts 255°
2026-05-08 01:20 36.09574 -91.02403 36058 ft 336 kts 258°
2026-05-08 01:20 36.08442 -91.07968 36058 ft 336 kts 258°
2026-05-08 01:21 36.07297 -91.13573 36057 ft 336 kts 258°
2026-05-08 01:21 36.06152 -91.19180 36060 ft 336 kts 258°
2026-05-08 01:22 36.05006 -91.24785 36061 ft 336 kts 258°
2026-05-08 01:22 36.03860 -91.30393 36060 ft 336 kts 257°
2026-05-08 01:23 36.02712 -91.35994 36059 ft 336 kts 257°
2026-05-08 01:23 36.01558 -91.41601 36057 ft 337 kts 257°
2026-05-08 01:24 36.00396 -91.47206 36059 ft 337 kts 257°
2026-05-08 01:24 35.99239 -91.52772 36054 ft 337 kts 257°
2026-05-08 01:25 35.98078 -91.58372 36057 ft 337 kts 257°
2026-05-08 01:25 35.96916 -91.63973 36055 ft 337 kts 257°
2026-05-08 01:26 35.95752 -91.69574 36055 ft 337 kts 257°
2026-05-08 01:26 35.94577 -91.75175 36055 ft 337 kts 257°
2026-05-08 01:27 35.93404 -91.80780 36055 ft 337 kts 257°
2026-05-08 01:27 35.92226 -91.86374 36053 ft 337 kts 257°
2026-05-08 01:28 35.91047 -91.91972 36053 ft 337 kts 257°
2026-05-08 01:28 35.89869 -91.97572 36047 ft 337 kts 257°
2026-05-08 01:29 35.88685 -92.03180 36049 ft 338 kts 257°
2026-05-08 01:29 35.87496 -92.08789 36058 ft 338 kts 257°
2026-05-08 01:30 35.86293 -92.14400 36052 ft 339 kts 257°
2026-05-08 01:30 35.85104 -92.20020 36046 ft 338 kts 257°
2026-05-08 01:31 35.83913 -92.25638 36050 ft 339 kts 257°
2026-05-08 01:31 35.82716 -92.31259 36049 ft 339 kts 257°
2026-05-08 01:32 35.81506 -92.36882 36048 ft 340 kts 256°
2026-05-08 01:32 35.80296 -92.42476 36054 ft 340 kts 256°
2026-05-08 01:33 35.79083 -92.48104 36056 ft 339 kts 256°
2026-05-08 01:33 35.77865 -92.53720 36054 ft 339 kts 256°
2026-05-08 01:34 35.76643 -92.59341 36052 ft 340 kts 256°
2026-05-08 01:34 35.75418 -92.64974 36056 ft 340 kts 256°
2026-05-08 01:35 35.74202 -92.70572 36052 ft 341 kts 256°
2026-05-08 01:35 35.72972 -92.76209 36054 ft 341 kts 256°
2026-05-08 01:36 35.71730 -92.81842 36049 ft 341 kts 256°
2026-05-08 01:36 35.70493 -92.87484 36052 ft 342 kts 256°
2026-05-08 01:37 35.69253 -92.93132 36051 ft 341 kts 256°
2026-05-08 01:37 35.68008 -92.98763 36054 ft 342 kts 256°
2026-05-08 01:38 35.66762 -93.04399 36053 ft 341 kts 256°
2026-05-08 01:38 35.65511 -93.10035 36051 ft 342 kts 256°
2026-05-08 01:39 35.64257 -93.15651 36050 ft 343 kts 256°
2026-05-08 01:39 35.62998 -93.21306 36046 ft 343 kts 256°
2026-05-08 01:40 35.61738 -93.26964 36046 ft 342 kts 256°
2026-05-08 01:40 35.60477 -93.32599 36043 ft 341 kts 256°
2026-05-08 01:41 35.59224 -93.38197 36043 ft 342 kts 255°
2026-05-08 01:41 35.57950 -93.43843 36042 ft 342 kts 255°
2026-05-08 01:42 35.56674 -93.49483 36043 ft 343 kts 255°
2026-05-08 01:42 35.55393 -93.55120 36045 ft 343 kts 255°
2026-05-08 01:43 35.54111 -93.60759 36046 ft 343 kts 255°
2026-05-08 01:43 35.52826 -93.66401 36047 ft 343 kts 255°
2026-05-08 01:44 35.51545 -93.72001 36047 ft 343 kts 255°
2026-05-08 01:44 35.50256 -93.77639 36051 ft 343 kts 255°
2026-05-08 01:45 35.48966 -93.83284 36052 ft 343 kts 255°
2026-05-08 01:45 35.47674 -93.88928 36049 ft 343 kts 255°
2026-05-08 01:46 35.46376 -93.94573 36050 ft 344 kts 255°
2026-05-08 01:46 35.45075 -94.00215 36054 ft 344 kts 255°